Track NAVSTAR 62 (USA 201) now! NAVSTAR 62 (USA 201) is classified as:
1 32711U 08012A 25186.13075524 .00000075 00000-0 00000-0 0 9996 2 32711 54.4663 163.7820 0199938 243.5883 114.3354 2.00559223126797